Date String (YYYY-MM-DD hh:mm:ss) UTC,Instrument flags,absolute air pressure of the measurement (hPa),sample flow rate (lpm),inlet stack bypass flow (lpm),air temperature of the measurement (°C),ambient temperature measured by the external sensor (°C),aerosol sample conditioner tube jacket temperature (°C),OPC LED temperature (°C),internal box temperature (°C),relative humidity of the measurement (%),span deviation,mass concentration of particles derived from Lorenz-Mie calculation of OPC scattering (μg/m³),mass concentration of particles derived from Lorenz-Mie calculation of OPC scattering (μg/m³),mass concentration of particles derived from Lorenz-Mie calculation of OPC scattering (μg/m³)
DateTimeUTC,F1_M11,P_M11,Q1_M11,Q2_M11,T1_M11,T2_M11,T3_M11,T4_M11,T5_M11,U1_M11,ZSPAN_M11,X2_M11,X0_M11,X1_M11
2024-04-22 05:00:00,SystemResetWarning,0827.8,5.00,000.00,024.9,024.1,000.0,033.5,026.7,017.8,0000.0,0003.85,0007.89,0003.33
2024-04-22 05:01:00,SystemResetWarning,0827.8,5.00,000.00,024.9,024.1,000.0,033.5,026.7,017.6,0000.0,0003.84,0006.85,0003.31
2024-04-22 05:02:00,SystemResetWarning,0827.8,4.99,000.00,024.9,024.1,000.0,033.5,026.7,017.6,0000.0,0003.88,0006.58,0003.31
2024-04-22 05:03:00,SystemResetWarning,0827.8,4.99,000.00,024.9,024.1,000.0,033.5,026.7,017.7,0000.0,0003.87,0006.53,0003.31
2024-04-22 05:04:00,SystemResetWarning,0827.8,4.99,000.00,024.9,024.1,000.0,033.5,026.7,017.6,0000.0,0003.88,0006.54,0003.31
2024-04-22 05:05:00,SystemResetWarning,0827.7,5.00,000.00,024.9,024.1,000.0,033.5,026.7,017.6,0000.0,0003.88,0006.55,0003.30
2024-04-22 05:06:00,SystemResetWarning,0827.7,5.00,000.00,024.9,024.1,000.0,033.5,026.7,017.6,0000.0,0003.91,0006.79,0003.31
2024-04-22 05:07:00,SystemResetWarning,0827.8,5.01,000.00,024.9,024.1,000.0,033.4,026.7,017.6,0000.0,0003.93,0006.97,0003.31
2024-04-22 05:08:00,SystemResetWarning,0827.8,5.00,000.00,024.9,024.1,000.0,033.4,026.7,017.4,0000.0,0003.88,0007.23,0003.30
2024-04-22 05:09:00,SystemResetWarning,0827.8,5.00,000.00,024.9,024.1,000.0,033.4,026.7,017.4,0000.0,0003.85,0008.75,0003.29
2024-04-22 05:10:00,SystemResetWarning,0827.8,5.00,000.00,024.9,024.1,000.0,033.4,026.7,017.3,0000.0,0003.88,0009.26,0003.28
2024-04-22 05:11:00,SystemResetWarning,0827.7,4.99,000.00,024.9,024.1,000.0,033.4,026.7,017.1,0000.0,0003.85,0009.34,0003.27
2024-04-22 05:12:00,SystemResetWarning,0827.7,5.00,000.00,024.8,024.0,000.0,033.4,026.7,017.3,0000.0,0003.84,0009.34,0003.26
2024-04-22 05:13:00,SystemResetWarning,0827.7,5.00,000.00,024.8,024.0,000.0,033.4,026.7,017.5,0000.0,0003.83,0009.28,0003.27
2024-04-22 05:14:00,SystemResetWarning,0827.7,5.00,000.00,024.8,024.0,000.0,033.4,026.7,017.3,0000.0,0003.84,0009.26,0003.29
2024-04-22 05:15:00,SystemResetWarning,0827.7,5.00,000.00,024.8,024.0,000.0,033.4,026.7,017.3,0000.0,0003.83,0009.25,0003.29
2024-04-22 05:16:00,SystemResetWarning,0827.7,5.00,000.00,024.8,024.0,000.0,033.4,026.6,017.1,0000.0,0003.83,0009.27,0003.28
2024-04-22 05:17:00,SystemResetWarning,0827.6,5.00,000.00,024.8,024.0,000.0,033.4,026.6,017.2,0000.0,0003.79,0009.14,0003.27
2024-04-22 05:18:00,SystemResetWarning,0827.6,5.00,000.00,024.8,023.9,000.0,033.4,026.6,018.0,0000.0,0003.78,0009.05,0003.28
2024-04-22 05:19:00,SystemResetWarning,0827.6,5.01,000.00,024.8,023.9,000.0,033.4,026.6,018.4,0000.0,0003.85,0008.87,0003.34
2024-04-22 05:20:00,SystemResetWarning,0827.6,4.99,000.00,024.8,023.9,000.0,033.4,026.6,018.2,0000.0,0003.96,0007.63,0003.41
2024-04-22 05:21:00,SystemResetWarning,0827.5,4.99,000.00,024.8,023.9,000.0,033.4,026.6,018.6,0000.0,0004.02,0007.64,0003.48
2024-04-22 05:22:00,SystemResetWarning,0827.5,5.00,000.00,024.7,023.9,000.0,033.3,026.6,017.7,0000.0,0004.11,0008.26,0003.55
2024-04-22 05:23:00,SystemResetWarning,0827.5,5.01,000.00,024.7,023.9,000.0,033.3,026.6,017.6,0000.0,0004.14,0008.29,0003.58
2024-04-22 05:24:00,SystemResetWarning,0827.5,5.01,000.00,024.7,023.9,000.0,033.3,026.6,017.9,0000.0,0004.15,0008.29,0003.59
2024-04-22 05:25:00,SystemResetWarning,0827.5,5.00,000.00,024.7,023.9,000.0,033.3,026.6,018.0,0000.0,0004.16,0008.30,0003.62
2024-04-22 05:26:00,SystemResetWarning,0827.5,4.99,000.00,024.7,023.9,000.0,033.3,026.6,017.9,0000.0,0004.19,0008.48,0003.65
2024-04-22 05:27:00,SystemResetWarning,0827.5,4.99,000.00,024.7,023.9,000.0,033.3,026.6,017.8,0000.0,0004.23,0008.88,0003.71
2024-04-22 05:28:00,SystemResetWarning,0827.6,5.00,000.00,024.7,023.9,000.0,033.3,026.6,018.6,0000.0,0004.33,0009.19,0003.78
2024-04-22 05:29:00,SystemResetWarning,0827.8,5.01,000.00,024.7,023.9,000.0,033.3,026.6,019.1,0000.0,0004.44,0009.73,0003.87
2024-04-22 05:30:00,SystemResetWarning,0827.9,5.00,000.00,024.7,023.9,000.0,033.3,026.6,019.2,0000.0,0004.52,0009.87,0003.94
2024-04-22 05:31:00,SystemResetWarning,0827.9,5.01,000.00,024.7,023.9,000.0,033.3,026.6,019.1,0000.0,0004.57,0009.94,0003.99
2024-04-22 05:32:00,SystemResetWarning,0827.5,5.01,000.00,024.7,023.9,000.0,033.3,026.6,018.4,0000.0,0004.57,0009.45,0004.02
2024-04-22 05:33:00,SystemResetWarning,0827.5,4.99,000.00,024.7,023.9,000.0,033.3,026.6,016.8,0000.0,0004.56,0008.87,0004.00
2024-04-22 05:34:00,SystemResetWarning,0827.8,4.99,000.00,024.7,024.0,000.0,033.3,026.6,016.2,0000.0,0004.49,0008.77,0003.95
2024-04-22 05:35:00,SystemResetWarning,0827.4,4.99,000.00,024.7,024.0,000.0,033.3,026.6,017.2,0000.0,0004.46,0008.82,0003.92
2024-04-22 05:36:00,SystemResetWarning,0827.4,5.01,000.00,024.7,024.0,000.0,033.3,026.6,018.1,0000.0,0004.44,0008.77,0003.91
2024-04-22 05:37:00,SystemResetWarning,0827.4,5.01,000.00,024.7,024.0,000.0,033.3,026.6,018.4,0000.0,0004.47,0008.66,0003.94
2024-04-22 05:38:00,SystemResetWarning,0827.4,5.00,000.00,024.7,024.0,000.0,033.3,026.6,018.2,0000.0,0004.52,0008.34,0003.96
2024-04-22 05:39:00,SystemResetWarning,0827.4,5.00,000.00,024.7,024.0,000.0,033.3,026.6,017.8,0000.0,0004.51,0008.41,0003.96
2024-04-22 05:40:00,SystemResetWarning,0827.3,5.00,000.00,024.7,024.0,000.0,033.3,026.6,017.9,0000.0,0004.45,0008.50,0003.90
2024-04-22 05:41:00,SystemResetWarning,0827.3,4.99,000.00,024.7,024.0,000.0,033.3,026.6,017.7,0000.0,0004.37,0009.37,0003.84
2024-04-22 05:42:00,SystemResetWarning,0827.2,5.00,000.00,024.7,023.9,000.0,033.3,026.6,017.3,0000.0,0004.26,0009.25,0003.75
2024-04-22 05:43:00,SystemResetWarning,0827.2,5.00,000.00,024.7,023.9,000.0,033.3,026.6,017.5,0000.0,0004.20,0009.24,0003.69
2024-04-22 05:44:00,SystemResetWarning,0827.2,5.00,000.00,024.7,023.9,000.0,033.3,026.5,017.9,0000.0,0004.13,0009.11,0003.67
2024-04-22 05:45:00,SystemResetWarning,0827.2,5.00,000.00,024.7,023.8,000.0,033.3,026.5,016.9,0000.0,0004.20,0009.10,0003.72
2024-04-22 05:46:00,SystemResetWarning,0827.1,5.00,000.00,024.7,023.8,000.0,033.3,026.5,016.7,0000.0,0004.22,0009.23,0003.75
2024-04-22 05:47:00,SystemResetWarning,0827.1,5.00,000.00,024.6,023.8,000.0,033.2,026.5,017.1,0000.0,0004.24,0009.47,0003.74
2024-04-22 05:48:00,SystemResetWarning,0827.2,5.01,000.00,024.6,023.8,000.0,033.2,026.5,016.9,0000.0,0004.22,0009.48,0003.71
2024-04-22 05:49:00,SystemResetWarning,0827.2,5.01,000.00,024.6,023.7,000.0,033.2,026.4,016.6,0000.0,0004.18,0009.49,0003.66
2024-04-22 05:50:00,SystemResetWarning,0827.1,5.00,000.00,024.6,023.7,000.0,033.2,026.4,016.1,0000.0,0004.09,0009.38,0003.58
2024-04-22 05:51:00,SystemResetWarning,0827.2,5.00,000.00,024.6,023.7,000.0,033.2,026.4,016.0,0000.0,0004.01,0008.81,0003.50
2024-04-22 05:52:00,SystemResetWarning,0827.1,5.01,000.00,024.6,023.7,000.0,033.2,026.4,016.6,0000.0,0003.95,0007.98,0003.43
2024-04-22 05:53:00,SystemResetWarning,0827.1,5.00,000.00,024.6,023.7,000.0,033.2,026.4,017.5,0000.0,0003.90,0007.38,0003.38
2024-04-22 05:54:00,SystemResetWarning,0827.1,5.00,000.00,024.6,023.7,000.0,033.2,026.4,018.5,0000.0,0003.91,0007.40,0003.38
2024-04-22 05:55:00,SystemResetWarning,0827.1,4.99,000.00,024.5,023.7,000.0,033.2,026.3,018.5,0000.0,0003.94,0007.41,0003.40
2024-04-22 05:56:00,SystemResetWarning,0827.1,5.00,000.00,024.5,023.6,000.0,033.1,026.4,018.0,0000.0,0003.95,0007.44,0003.41
2024-04-22 05:57:00,SystemResetWarning,0827.1,5.00,000.00,024.5,023.6,000.0,033.1,026.3,017.4,0000.0,0003.96,0007.84,0003.40
2024-04-22 05:58:00,SystemResetWarning,0827.1,5.00,000.00,024.5,023.6,000.0,033.1,026.3,016.9,0000.0,0003.92,0007.56,0003.40
2024-04-22 05:59:00,SystemResetWarning,0827.1,5.00,000.00,024.5,023.6,000.0,033.1,026.3,017.6,0000.0,0003.89,0008.14,0003.37
